sat.trackr.live / text

‹ back to catalog

STARLINK-35627

NORAD 66172 · 2025-240AC

PAYLOAD ACTIVE UNKNOWN

§ Identity

Operator
Country
US
Launch date
2025-10-25
Launch site
AFWTR
Launch vehicle
Mass (kg)
RCS (m²)

Purposes: comms

External: N2YO · Heavens-Above · Gunter

§ Orbital elements

Epoch: 2026-05-25T01:53:41.076096Z

Period
94.10 min
Inclination
53.1577°
Eccentricity
0.0001061
Mean motion
15.30208764 rev/d
Perigee alt
474.5 km
Apogee alt
475.9 km
Semi-major
6,853.3 km
B*
4.8967e-4
RAAN
68.0031°
Arg perigee
98.4446°
Mean anomaly
261.6675°
Rev number
3,368

§ Raw data

STARLINK-356271 66172U 25240AC  26145.07894764  .00014175  00000+0  48967-3 0  99922 66172  53.1577  68.0031 0001061  98.4446 261.6675 15.30208764 33682

JSON: /api/v1/satellites/66172 · /tle

For live sub-satellite position, see the globe view (requires WebGL).

§ Visibility from observer

Set your observer location to see the next 7 days of passes ≥ 10°. The values pass through the URL so the page stays shareable.

No JS? Fill the form by hand. The geolocation button needs JavaScript.